Southport, FL

1:47 AM CDT on September 27, 2016 (GMT -0500)
Northwest Florida Beaches International

Weather History for KECP - February, 2013

Change the Weather History Date:

Tuesday, February 12, 2013

  Actual Average Record
Temperature  
Mean Temperature 67 °F -  
Max Temperature 73 °F - 73 °F (2013)
Min Temperature 60 °F - 27 °F (2011)
Degree Days  
Heating Degree Days 0    
Cooling Degree Days 2    
Growing Degree Days 16 (Base 50)    
Moisture  
Dew Point 63 °F    
Average Humidity 92    
Maximum Humidity 97    
Minimum Humidity 87    
Precipitation  
Precipitation 0.19 in - 1.12 in (2014)
Month to date precipitation  
Year to date precipitation  
Sea Level Pressure  
Sea Level Pressure 29.95 in    
Wind  
Wind Speed 8 mph (East)    
Max Wind Speed 23 mph    
Max Gust Speed 32 mph    
Visibility 6 miles    
Events Rain    
T = Trace of Precipitation, MM = Missing Value Source: NWS Daily Summary

Daily Weather History Graph

Daily Weather History Graph

Search for Another Location

Airport or City:

Trip Planner

Search our weather history database for the weather conditions in past years. The results will help you decide how hot, cold, wet, or windy it might be!

Date:

Astronomy

Feb. 12, 2013 Rise Set
Actual Time 7:25 AM EST 6:29 PM EST
Civil Twilight 7:01 AM EST 6:54 PM EST
Nautical Twilight 6:32 AM EST 7:22 PM EST
Astronomical Twilight 6:04 AM EST 7:50 PM EST
Moon 8:37 AM EST (2/12) 9:12 PM EST (2/12)
Length of Visible Light 11h 52m
Length of Day
11h 03m
Waxing Crescent, 7% of the Moon is Illuminated
Feb 12
Waxing Crescent
Feb 17
First Quarter
Feb 25
Full
Mar 4
Last Quarter
Mar 11
New

Hourly Weather History & Observations

Time (EST) Temp. Dew Point Humidity Pressure Visibility Wind Dir Wind Speed Gust Speed Precip Events Conditions
12:53 AM 60.1 °F 57.0 °F 90% 30.07 in 10.0 mi NE 5.8 mph - 0.02 in   Overcast
1:39 AM 60.8 °F 57.2 °F 88% 30.03 in 10.0 mi NE 6.9 mph - N/A   Overcast
1:53 AM 60.1 °F 57.0 °F 90% 30.07 in 10.0 mi East 4.6 mph - N/A   Mostly Cloudy
2:16 AM 60.8 °F 57.2 °F 88% 30.03 in 10.0 mi NE 4.6 mph - N/A   Overcast
2:53 AM 60.1 °F 57.9 °F 93% 30.06 in 10.0 mi NE 3.5 mph - N/A   Overcast
3:53 AM 60.1 °F 57.9 °F 93% 30.06 in 10.0 mi North 6.9 mph - N/A   Overcast
4:53 AM 61.0 °F 57.9 °F 90% 30.05 in 10.0 mi NNE 5.8 mph - N/A   Overcast
5:53 AM 61.0 °F 57.9 °F 90% 30.04 in 10.0 mi NNE 5.8 mph - N/A   Overcast
6:28 AM 60.8 °F 57.2 °F 88% 30.02 in 9.0 mi NNE 5.8 mph - N/A   Overcast
6:53 AM 60.1 °F 59.0 °F 96% 30.05 in 2.0 mi North 5.8 mph - N/A   Overcast
6:57 AM 60.8 °F 59.0 °F 94% 30.02 in 1.5 mi North 6.9 mph - N/A   Overcast
7:53 AM 60.1 °F 59.0 °F 96% 30.06 in 1.0 mi North 9.2 mph - N/A   Overcast
8:34 AM 60.8 °F 59.0 °F 94% 30.02 in 2.0 mi NNE 8.1 mph - N/A   Overcast
8:53 AM 61.0 °F 59.0 °F 93% 30.06 in 2.0 mi NNE 10.4 mph - N/A   Overcast
9:53 AM 62.1 °F 60.1 °F 93% 30.05 in 10.0 mi NE 6.9 mph - N/A   Overcast
10:53 AM 62.1 °F 60.1 °F 93% 30.05 in 10.0 mi NE 6.9 mph - N/A   Overcast
11:30 AM 62.6 °F 60.8 °F 94% 30.01 in 2.0 mi NE 4.6 mph - 0.00 in Rain Light Rain
11:53 AM 63.0 °F 60.1 °F 90% 30.04 in 4.0 mi NE 6.9 mph - 0.00 in   Overcast
12:03 PM 62.6 °F 60.8 °F 94% 30.00 in 2.0 mi ENE 4.6 mph - 0.02 in Rain Heavy Rain
12:23 PM 62.6 °F 60.8 °F 94% 30.00 in 1.8 mi NE 4.6 mph - 0.08 in Rain Heavy Rain
12:27 PM 62.6 °F 60.8 °F 94% 30.00 in 2.5 mi Calm Calm - 0.08 in Rain Light Rain
12:53 PM 64.0 °F 61.0 °F 90% 30.02 in 10.0 mi NE 8.1 mph - 0.08 in   Overcast
1:53 PM 64.9 °F 62.1 °F 90% 29.96 in 10.0 mi NE 6.9 mph - N/A   Overcast
2:53 PM 64.9 °F 63.0 °F 93% 29.94 in 3.0 mi ENE 3.5 mph - N/A   Overcast
3:39 PM 66.2 °F 64.4 °F 94% 29.85 in 3.0 mi East 5.8 mph - 0.00 in   Overcast
3:53 PM 66.9 °F 64.9 °F 93% 29.88 in 2.0 mi SE 5.8 mph - 0.00 in   Overcast
4:22 PM 68.0 °F 66.2 °F 94% 29.83 in 3.0 mi East 6.9 mph - 0.07 in Rain Light Rain
4:38 PM 69.8 °F 66.2 °F 88% 29.82 in 3.0 mi ESE 4.6 mph - 0.07 in   Overcast
4:53 PM 70.0 °F 68.0 °F 93% 29.85 in 3.0 mi SSE 12.7 mph 17.3 mph 0.07 in   Overcast
5:53 PM 72.0 °F 69.1 °F 91% 29.85 in 3.0 mi SSE 16.1 mph - N/A   Overcast
6:53 PM 72.0 °F 68.0 °F 87% 29.85 in 8.0 mi South 21.9 mph 28.8 mph N/A   Overcast
7:53 PM 71.1 °F 68.0 °F 90% 29.87 in 7.0 mi South 18.4 mph 23.0 mph N/A   Overcast
8:00 PM 71.6 °F 68.0 °F 88% 29.83 in 7.0 mi South 16.1 mph 24.2 mph N/A   Overcast
8:53 PM 72.0 °F 69.1 °F 91% 29.87 in 8.0 mi South 17.3 mph 23.0 mph N/A   Overcast
8:55 PM 71.6 °F 69.8 °F 94% 29.83 in 8.0 mi South 17.3 mph 23.0 mph N/A   Overcast
9:02 PM 71.6 °F 69.8 °F 94% 29.83 in 8.0 mi South 13.8 mph 23.0 mph N/A   Overcast
9:53 PM 72.0 °F 69.1 °F 91% 29.86 in 7.0 mi South 17.3 mph 24.2 mph 0.00 in   Overcast
10:53 PM 72.0 °F 69.1 °F 91% 29.86 in 8.0 mi South 17.3 mph 25.3 mph N/A   Mostly Cloudy
11:00 PM 71.6 °F 69.8 °F 94% 29.82 in 8.0 mi South 18.4 mph 25.3 mph N/A   Overcast
11:10 PM 71.6 °F 69.8 °F 94% 29.82 in 8.0 mi South 17.3 mph 26.5 mph N/A   Overcast
11:37 PM 71.6 °F 69.8 °F 94% 29.82 in 4.0 mi South 18.4 mph 32.2 mph 0.02 in Rain Rain
11:53 PM 72.0 °F 69.1 °F 91% 29.85 in 8.0 mi South 17.3 mph 25.3 mph 0.04 in Rain Light Rain